Wind_Speed
15 14 14 14 13 13 14 14 14 15 16 16 15 14 14 13 11 10 10 10 10 9 10 10 12 13 14 15 15 16 13 13
15 14 14 12 11 13 13 13 13 14 14 13 12 11 10 9 9 8 7 6 6 6 6 7 8 10 11 12 13 14 13 13
14 14 12 12 11 11 11 12 12 12 11 11 8 6 6 5 6 5 4 4 5 5 5 5 7 10 11 12 13 12 12 13
13 12 12 11 9 10 9 9 8 7 7 5 5 4 3 3 3 2 3 3 4 3 4 7 7 7 10 12 12 13 12 13
12 11 11 10 9 9 8 8 7 5 4 3 3 3 3 2 2 1 2 3 2 4 5 6 8 8 9 11 12 13 14 15
12 10 10 9 9 7 7 6 5 3 2 2 3 3 3 4 3 1 2 3 3 5 6 6 8 9 10 12 13 14 15 15
12 11 10 9 8 5 4 3 2 1 1 1 1 3 4 4 3 2 3 3 4 6 7 9 11 13 14 14 15 15 14 14
11 10 10 9 8 6 4 2 0 1 5 6 5 4 5 5 4 4 3 4 6 8 10 12 13 14 14 14 14 14 14 13
12 10 10 11 11 10 7 3 3 6 6 3 5 5 6 6 5 4 5 6 9 10 11 11 12 12 14 15 14 14 14 12
14 12 15 18 14 11 10 11 10 5 2 6 7 8 8 8 6 6 6 8 9 10 11 12 12 13 15 17 16 16 15 12
18 18 15 12 13 7 6 11 4 5 8 7 8 9 9 8 6 6 7 8 9 11 12 11 14 14 17 18 17 18 16 11
21 20 15 14 17 6 7 8 11 10 8 7 7 7 7 6 6 7 8 8 9 10 10 12 13 14 18 17 18 16 12 9
22 23 19 4 12 13 10 11 10 8 7 7 6 6 5 7 6 6 7 7 7 9 11 14 15 14 19 19 18 10 11 12
19 18 17 14 12 13 11 9 6 7 7 6 5 4 5 5 5 6 6 9 10 11 12 14 16 14 15 19 8 14 14 10
17 17 16 16 16 11 10 9 8 7 6 5 2 2 1 3 5 6 8 10 13 13 13 13 15 16 11 12 10 9 17 18
20 19 18 16 12 11 11 5 6 5 6 5 2 2 3 6 8 8 10 12 14 14 13 11 12 16 15 14 13 16 10 11
16 16 14 13 13 9 6 4 5 6 5 3 4 6 7 8 10 12 14 16 16 14 12 13 12 14 16 16 15 15 16 13
14 15 13 11 9 8 7 6 5 4 2 5 8 10 11 12 13 14 16 17 17 17 15 13 15 16 15 14 14 15 16 15
13 12 11 10 9 8 7 5 3 1 3 7 10 13 15 16 16 17 18 19 20 19 17 16 17 17 16 15 13 15 16 16
12 11 10 9 9 8 5 3 0 3 5 8 11 12 13 14 15 18 20 20 19 19 17 17 16 17 17 15 15 14 16 16
Wind_Direction
149 152 160 161 154 153 149 148 145 137 129 126 123 119 121 120 114 104 94 86 80 73 64 56 43 39 33 25 19 22 13 5
153 160 158 155 154 158 153 150 145 133 131 130 131 127 118 113 92 100 89 79 69 61 58 54 35 26 25 20 19 15 2 356
161 160 159 156 154 157 155 150 147 137 136 144 130 135 132 121 128 102 93 73 65 60 59 35 28 10 13 16 20 360 355 349
164 158 153 149 149 153 152 156 148 155 147 156 149 141 158 151 117 120 107 87 67 51 25 20 21 2 355 1 357 351 344 339
158 149 145 149 150 153 152 154 161 172 156 165 179 171 165 188 118 108 74 63 42 29 18 11 9 4 350 349 345 339 332 330
147 146 143 141 143 146 151 156 154 154 162 203 225 211 157 147 141 127 50 31 25 22 3 2 350 343 338 334 330 326 322 321
147 146 145 150 132 139 142 142 148 133 162 233 179 184 155 139 128 100 58 25 11 3 350 338 331 326 324 323 322 320 318 317
152 151 143 138 130 114 133 105 74 212 250 237 177 172 154 141 115 87 45 21 8 354 343 332 325 322 322 322 321 319 318 315
152 141 133 121 103 86 79 67 341 293 253 220 143 137 128 117 103 80 42 12 0 342 337 327 321 321 319 318 313 312 309 307
145 125 116 105 80 64 39 10 354 324 167 135 127 126 116 94 78 51 23 7 353 345 336 330 325 324 322 317 309 309 304 294
145 136 122 93 54 34 357 262 272 158 115 114 122 111 92 81 61 33 15 0 354 347 339 335 329 324 322 315 309 305 298 289
155 147 120 88 15 268 249 213 162 145 125 131 118 100 85 69 40 24 10 356 348 347 339 333 326 321 321 315 313 305 294 291
159 161 156 246 172 206 188 178 148 135 131 134 115 98 68 46 25 6 1 348 345 342 338 332 328 326 319 322 311 290 285 304
165 170 193 179 178 172 169 153 148 162 152 139 128 87 49 27 22 353 341 337 331 332 330 329 325 327 321 314 317 303 288 311
171 180 182 168 160 153 142 149 161 160 162 165 137 90 37 354 345 340 329 322 322 319 317 316 318 318 317 311 315 312 321 300
172 169 163 160 163 164 170 204 196 187 186 178 205 229 290 327 323 313 309 309 308 308 306 303 308 310 308 305 297 299 301 304
156 158 166 169 172 169 174 152 132 150 163 202 288 305 304 308 308 303 300 300 297 292 286 285 290 300 299 305 299 296 292 293
155 159 157 159 158 150 139 141 153 181 234 297 307 310 309 305 308 303 293 292 289 283 275 274 277 290 284 285 289 297 300 308
160 158 148 144 134 131 137 143 159 252 309 317 313 309 303 304 305 307 302 296 288 282 274 278 290 294 285 287 292 292 298 299
167 161 141 132 128 129 135 134 337 326 322 313 308 309 310 312 313 310 306 301 290 278 276 278 294 298 293 283 288 293 293 296
Height
845 848 852 854 856 858 860 861 864 863 863 864 865 867 867 868 867 868 867 867 866 865 864 864 864 861 858 858 857 855 855 853
845 851 853 855 857 860 861 863 865 864 866 867 868 869 870 871 869 868 868 867 866 866 865 864 863 862 859 858 858 856 856 853
847 851 854 857 860 861 863 865 867 866 867 869 871 871 872 872 869 868 867 867 866 866 865 865 863 861 860 859 857 857 856 854
849 852 854 858 861 863 865 866 868 871 870 872 871 872 874 874 869 870 868 867 866 866 865 864 864 862 861 860 858 857 855 854
850 852 854 858 861 864 866 867 868 871 870 872 872 873 871 874 871 873 871 868 868 867 866 865 864 862 862 860 858 856 854 852
850 853 854 859 860 864 865 868 868 871 871 872 874 873 871 872 871 872 871 870 869 867 867 865 864 863 861 858 857 855 853 850
849 853 855 859 860 864 866 867 869 868 870 871 873 873 872 872 871 871 871 871 870 869 867 866 864 862 860 857 855 853 851 848
851 856 857 859 862 863 865 866 867 868 868 868 869 872 871 872 871 871 872 872 870 869 867 865 863 861 858 855 853 851 849 846
853 856 859 860 861 862 864 865 867 866 868 869 869 872 871 871 872 872 872 872 870 869 867 865 862 859 856 853 850 848 846 844
853 857 859 860 862 862 864 864 865 867 868 869 869 871 870 871 873 873 872 871 870 869 866 864 860 858 855 851 848 846 843 841
852 857 861 861 864 864 861 859 864 868 868 870 872 871 871 872 873 873 872 871 870 868 866 863 859 857 854 850 846 844 840 838
851 854 859 861 859 861 862 868 864 867 866 870 872 871 871 872 872 872 871 870 869 868 865 862 858 855 852 847 844 841 838 837
846 848 849 852 856 862 863 868 865 866 868 871 872 872 873 872 871 871 870 870 868 866 863 859 856 854 850 845 840 837 837 836
845 848 850 852 856 860 863 863 865 867 869 870 871 871 871 871 871 871 870 868 866 863 861 857 854 852 851 845 835 834 830 833
843 846 848 851 854 856 859 863 866 866 867 869 870 870 871 871 870 868 867 865 863 861 858 857 854 851 849 849 839 832 834 834
840 844 848 851 854 857 860 859 861 863 866 869 870 870 869 868 866 865 864 862 860 858 856 855 854 850 847 845 844 842 836 830
844 847 851 854 856 857 858 860 862 864 866 867 868 867 866 865 864 863 861 859 856 855 854 852 851 849 847 843 842 840 838 836
846 848 851 853 855 856 858 860 861 862 863 864 864 864 863 863 861 860 857 855 853 852 850 848 847 846 844 842 840 838 835 833
845 848 851 853 854 856 858 859 860 860 861 861 862 861 860 859 858 856 854 852 849 848 846 844 843 841 840 839 837 836 835 833
843 846 850 852 854 856 858 858 859 859 860 860 860 860 858 857 855 853 851 848 845 842 840 839 838 837 837 836 835 833 832 830